EST,Max TemperatureF,Mean TemperatureF,Min TemperatureF,Max Dew PointF,MeanDew PointF,Min DewpointF,Max Humidity, Mean Humidity, Min Humidity, Max Sea Level PressureIn, Mean Sea Level PressureIn, Min Sea Level PressureIn, Max VisibilityMiles, Mean VisibilityMiles, Min VisibilityMiles, Max Wind SpeedMPH, Mean Wind SpeedMPH, Max Gust SpeedMPH,PrecipitationIn, CloudCover, Events, WindDirDegrees
2012-11-1,48,44,40,34,31,26,73,61,49,29.86,29.81,29.76,10,10,10,18,9,25,0.00,6,,313
2012-11-2,47,41,35,34,31,27,76,65,53,30.16,30.02,29.85,10,10,10,13,6,20,0.00,4,,331
2012-11-3,45,39,33,32,29,26,82,68,53,30.25,30.20,30.17,10,10,10,9,2,15,0.00,6,,357
2012-11-4,45,37,29,30,27,25,78,62,45,30.25,30.22,30.20,10,10,10,8,3,12,0.00,4,,14
2012-11-5,43,36,28,28,26,24,85,69,53,30.26,30.21,30.17,10,10,10,10,4,16,0.00,3,,50
2012-11-6,48,37,26,30,28,22,85,65,45,30.15,30.03,29.95,10,10,10,14,7,18,0.00,6,,145
2012-11-7,50,41,32,32,30,27,82,61,39,30.18,30.07,29.95,10,10,5,14,7,17,T,3,Rain,80
2012-11-8,47,38,28,38,33,26,89,77,65,30.23,30.18,30.13,10,7,4,9,3,12,0.00,6,,183
2012-11-9,57,46,34,41,37,31,89,70,51,30.16,30.10,30.00,10,8,3,13,5,14,0.00,5,,131
2012-11-10,67,59,51,50,45,41,71,60,48,30.06,29.98,29.89,10,10,9,22,8,31,0.00,5,,142
2012-11-11,72,63,53,54,49,44,86,67,47,30.00,29.90,29.81,10,9,4,12,19,17,0.16,4,Rain,194
2012-11-12,53,44,34,50,34,17,89,73,56,30.29,30.02,29.87,10,9,3,20,13,30,0.31,8,Rain-Snow,253
2012-11-13,40,34,27,23,20,17,81,66,51,30.54,30.45,30.30,10,10,10,6,7,7,T,4,,265
2012-11-14,45,36,26,26,22,20,81,62,43,30.58,30.52,30.44,10,10,10,6,6,6,0.00,1,,149
2012-11-15,46,38,29,32,27,22,85,67,49,30.43,30.38,30.33,10,7,4,5,4,5,0.00,0,,164
2012-11-16,54,41,28,39,32,24,89,72,54,30.51,30.47,30.40,10,4,0,5,2,6,0.00,1,Fog,175
2012-11-17,55,42,28,34,29,26,92,65,38,30.60,30.54,30.49,10,4,0,10,2,13,0.00,0,Fog,147
2012-11-18,59,46,32,34,30,27,82,57,31,30.51,30.46,30.38,10,9,5,7,6,8,0.00,0,,131
2012-11-19,59,48,36,35,33,29,76,60,43,30.38,30.26,30.15,10,10,10,8,5,10,0.00,0,,150
2012-11-20,54,48,42,46,41,34,93,77,60,30.18,30.12,30.07,10,6,2,9,3,10,T,8,Rain,182
2012-11-21,54,50,45,45,44,42,93,82,71,30.26,30.19,30.12,7,2,0,14,3,17,0.00,6,Fog,213
2012-11-22,64,55,45,48,44,41,86,65,44,30.11,29.92,29.73,10,7,2,31,12,43,0.26,3,Rain-Thunderstorm,185
2012-11-23,57,45,33,47,27,21,77,67,56,30.12,29.92,29.73,10,9,2,30,19,43,0.01,8,Snow,288
2012-11-24,34,32,30,23,21,19,69,63,56,30.19,30.13,30.02,10,10,9,20,10,26,T,8,Snow,292
2012-11-25,40,35,29,28,25,20,72,66,59,30.03,29.90,29.83,10,9,2,17,10,21,0.01,8,Snow,241
2012-11-26,38,35,31,27,22,18,64,56,47,30.35,30.19,30.03,10,10,10,14,7,20,0.00,8,,335
2012-11-27,38,32,26,23,20,15,75,64,52,30.39,30.32,30.23,10,10,10,16,6,21,0.00,6,,215
2012-11-28,42,35,28,29,25,21,78,65,52,30.34,30.28,30.21,10,9,2,24,11,32,T,5,Snow,270
2012-11-29,49,40,31,32,29,26,82,64,46,30.28,30.22,30.16,10,10,9,18,9,23,0.00,1,,178
2012-11-30,44,40,36,36,33,29,85,74,62,30.24,30.17,30.12,10,6,4,15,9,24,0.00,7,,79